{"data":{"norad_id":61973,"epoch":"2026-05-25T04:32:32.203104Z","epoch_age_seconds":58568,"freshness":"FRESH","line1":"1 61973U 24210Q   26145.18926161  .00019617  00000+0  72016-3 0  9999","line2":"2 61973  42.9976 107.4462 0000469 219.8625 140.2193 15.27594329 86585","mean_motion":15.27594329,"eccentricity":4.69e-5,"inclination_deg":42.9976,"raan_deg":107.4462,"arg_perigee_deg":219.8625,"mean_anomaly_deg":140.2193,"bstar":0.00072016,"rev_number":8658,"period_min":94.265864481355,"perigee_km":482.68440257859,"apogee_km":483.32797780983,"semimajor_km":6861.1431901942,"source":"CELESTRAK","updated_at":"2026-05-25T13:38:19.514953Z"}}